Hourly Weather Roundup
Issued by NWS Central Illinois

Home | Current Version | Previous Version | Text Only | Print | Product List | Glossary On
Versions: 1 2 3 4 5 6 7 8 9 10 11 12 13 14 15 16 17 18 19 20 21 22 23 24 25 26 27 28 29 30 31 32 33 34 35 36 37 38 39 40 41 42 43 44 45 46 47 48 49 50
000
NZUS43 KILX 250410
HWRILX

Area Weather Roundup
National Weather Service Lincoln IL
1000 PM CST SAT FEB 24 2018

NOTE:  "FAIR" indicates few or no clouds below 12,000 feet, with
       no sigificant weather and/or obstructions to visibility.


CITY           SKY/WX    TMP DP  RH WIND       PRES   REMARKS
Bloomington    RAIN      51  50  96 SE15      29.51F FOG
Champaign      CLOUDY    53  53 100 SE21      29.53F FOG
Danville       RAIN      52  52  99 S14G21    29.54F
Decatur        LGT RAIN  54  53  97 SW14      29.55R FOG
Effingham      CLOUDY    58  58 100 S21G28    29.61S
Flora          CLOUDY    62  58  87 SW26G33   29.64R
Galesburg      LGT RAIN  41  41 100 W15       29.60S WCI  33
Jacksonville   CLOUDY    46  43  91 W21       29.66R
Lacon          HVY RAIN  50  50 100 SW15G23   29.53R
Lawrenceville  CLOUDY    58  57  97 S15       29.63S
Litchfield     CLOUDY    53  53  99 W35G44    29.65R FOG
$$


CITY           SKY/WX    TMP DP  RH WIND       PRES   REMARKS
Lincoln        HVY RAIN  54  54 100 S14G22    29.54R
Macomb         CLOUDY   N/A N/A N/A W23       29.64R
Mattoon        CLOUDY    56  55  97 S13G22    29.55F
Mt Carmel AP   CLOUDY    59  57  96 S17       29.64R
Olney-Noble AP CLOUDY    59  57  93 S10G21    29.64R
Paris AP       CLOUDY    53  53 100 S15       29.57F
Peoria         LGT RAIN  49  47  93 W18G32    29.57R
Pontiac        CLOUDY    51  51  98 SE21G28   29.50F
Rantoul        RAIN      54  53  99 S16       29.53F
Robinson       CLOUDY    58  57  96 S16       29.61F
Springfield    LGT RAIN  51  48  89 W26G44    29.62R FOG
Taylorville    LGT RAIN  54  54 100 SW20G25   29.59R
$$

...REGIONAL REPORTS...


CITY           SKY/WX    TMP DP  RH WIND       PRES   REMARKS
Chicago O`Hare CLOUDY    46  43  89 SE17G25   29.50F
Kankakee       RAIN      48  47  97 SE15G23   29.55F
Moline         LGT RAIN  40  37  89 W24G35    29.58R WCI  29
Mount Sterling CLOUDY    41  38  89 W20G29    29.67R WCI  32
Mount Vernon   CLOUDY    59  57  93 SW20G29   29.67R
Pittsfield     CLOUDY    44  41  90 W21G31    29.71R
Quincy         CLOUDY    40  35  83 W18G30    29.70R WCI  31
Rockford       RAIN      44  44 100 S9        29.50F FOG
$$


CITY           SKY/WX    TMP DP  RH WIND       PRES   REMARKS
Burlington     CLOUDY    37  35  92 W26G35    29.65R WCI  25
Cedar Rapids   CLOUDY    34  27  75 W25       29.58S WCI  21
Des Moines     MOCLDY    30  25  81 W20       29.71R WCI  17
Kirksville     CLOUDY    33  30  88 W17G28    29.77R WCI  22
Ottumwa          N/A    N/A N/A N/A MISG      29.68R
St Louis       LGT RAIN  49  47  93 W21G36    29.72R
$$


CITY           SKY/WX    TMP DP  RH WIND       PRES   REMARKS
Terre Haute    CLOUDY    56  55  97 S16G25    29.58S
Evansville     FAIR      60  58  92 S14       29.69R
Indianapolis   CLOUDY    53  52  96 SE23G32   29.54F
Lafayette      CLOUDY    52  51  97 SE14G22   29.57F
Madison        RAIN      37  36  96 SE14      29.47F FOG     WCI  28
Milwaukee      RAIN      38  37  97 SE16      29.53F FOG     WCI  29
$$






USA.gov is the U.S. government's official web portal to all federal, state and local government web resources and services.